Location: Boussac
(44.2782°N, 2.3665°E)
Time: 21:20:54
(UTC+00:00)

Cosmos-2242 - Pass Details

Date: 15 May 2026
Orbit: 565 x 588 km, 82.5° (Epoch: 10 June)

Event Time Altitude Azimuth Distance (km) Brightness Sun altitude
Exits shadow 21:37:56 33° 85° (E) 966 3.8 -20.2°
Drops below altitude 10° 21:41:27 10° 27° (NNE) 1,874 5.9 -20.5°
Sets 21:43:47 0° 18° (NNE) 2,774 7.0 -20.7°
